Weather History for Livermore, CA

Change the Weather History Date:

Wednesday, July 10, 2013

  Actual Average Record
Temperature  
Mean Temperature 74 °F 72 °F  
Max Temperature 92 °F 87 °F 109 °F (2002)
Min Temperature 56 °F 57 °F 42 °F (1976)
Degree Days  
Heating Degree Days 0 0  
Month to date heating degree days 0 0  
Since 1 June heating degree days 5 32  
Since 1 July heating degree days 0 0  
Cooling Degree Days 9 7  
Month to date cooling degree days 126 67  
Year to date cooling degree days 417 230  
Since 1 June cooling degree days 316 177  
Growing Degree Days 24 (Base 50)    
Moisture  
Dew Point 51 °F    
Average Humidity 54    
Maximum Humidity 86    
Minimum Humidity 21    
Precipitation  
Precipitation 0.00 in 0.00 in 0.00 in (2015)
Month to date precipitation 0.00 0.00  
Year to date precipitation 2.12 9.90  
Since 1 July precipitation 0.00 0.00  
Sea Level Pressure  
Sea Level Pressure 29.92 in    
Wind  
Wind Speed 10 mph (WNW)    
Max Wind Speed 23 mph    
Max Gust Speed 28 mph    
Visibility 10 miles    
Events      
T = Trace of Precipitation, MM = Missing Value Source: NWS Daily Summary

Daily Weather History Graph

Daily Weather History Graph

Search for Another Location

Airport:

Trip Planner

Search our weather history database for the weather conditions in past years. The results will help you decide how hot, cold, wet, or windy it might be!

Date:

Astronomy

Jul. 10, 2013 Rise Set
Actual Time 5:54 AM PDT 8:30 PM PDT
Civil Twilight 5:23 AM PDT 9:01 PM PDT
Nautical Twilight 4:45 AM PDT 9:39 PM PDT
Astronomical Twilight 4:02 AM PDT 10:21 PM PDT
Moon 8:16 AM PDT (7/10) 9:47 PM PDT (7/10)
Length of Visible Light 15h 37m
Length of Day
14h 36m
Waxing Crescent, 6% of the Moon is Illuminated
Jul 10
Waxing Crescent
Jul 15
First Quarter
Jul 22
Full
Jul 29
Last Quarter
Aug 6
New

Hourly Weather History & Observations

Time (PDT) Temp. Heat Index Dew Point Humidity Pressure Visibility Wind Dir Wind Speed Gust Speed Precip Events Conditions
12:53 AM 69.1 °F - 48.0 °F 47% 29.95 in 10.0 mi NW 6.9 mph - N/A   Clear
1:53 AM 66.0 °F - 50.0 °F 56% 29.94 in 10.0 mi NW 3.5 mph - N/A   Clear
2:53 AM 64.9 °F - 50.0 °F 58% 29.94 in 10.0 mi WNW 5.8 mph - N/A   Clear
3:53 AM 63.0 °F - 50.0 °F 63% 29.94 in 10.0 mi NW 6.9 mph - N/A   Clear
4:53 AM 60.1 °F - 51.1 °F 72% 29.94 in 10.0 mi NW 9.2 mph - N/A   Clear
5:53 AM 57.0 °F - 52.0 °F 83% 29.95 in 10.0 mi NW 10.4 mph - N/A   Clear
6:53 AM 59.0 °F - 53.1 °F 81% 29.96 in 9.0 mi NW 6.9 mph - N/A   Clear
7:53 AM 62.1 °F - 54.0 °F 75% 29.96 in 10.0 mi WSW 6.9 mph - N/A   Clear
8:53 AM 66.0 °F - 54.0 °F 65% 29.96 in 10.0 mi WSW 5.8 mph - N/A   Clear
9:53 AM 70.0 °F - 55.0 °F 59% 29.94 in 10.0 mi Variable 3.5 mph - N/A   Clear
10:53 AM 77.0 °F - 54.0 °F 45% 29.93 in 10.0 mi SW 6.9 mph - N/A   Clear
11:53 AM 82.0 °F 81.3 °F 54.0 °F 38% 29.93 in 10.0 mi Variable 3.5 mph - N/A   Clear
12:53 PM 87.1 °F 84.9 °F 53.1 °F 31% 29.92 in 10.0 mi WNW 8.1 mph - N/A   Clear
1:53 PM 89.1 °F - 51.1 °F 27% 29.91 in 10.0 mi WNW 10.4 mph - N/A   Clear
2:53 PM 91.0 °F - 46.9 °F 22% 29.88 in 10.0 mi WNW 10.4 mph - N/A   Clear
3:53 PM 88.0 °F - 46.9 °F 24% 29.87 in 10.0 mi WNW 16.1 mph - N/A   Scattered Clouds
4:53 PM 84.9 °F - 46.9 °F 27% 29.86 in 10.0 mi WNW 21.9 mph - N/A   Clear
5:53 PM 82.0 °F - 48.0 °F 30% 29.86 in 10.0 mi WNW 12.7 mph - N/A   Clear
6:53 PM 78.1 °F - 48.0 °F 35% 29.86 in 10.0 mi WNW 16.1 mph - N/A   Clear
7:53 PM 73.0 °F - 48.0 °F 41% 29.87 in 10.0 mi West 13.8 mph - N/A   Clear
8:53 PM 66.9 °F - 50.0 °F 54% 29.89 in 10.0 mi WNW 11.5 mph - N/A   Clear
9:53 PM 62.1 °F - 51.1 °F 67% 29.91 in 10.0 mi WNW 13.8 mph - N/A   Clear
10:53 PM 60.1 °F - 52.0 °F 75% 29.92 in 10.0 mi WNW 11.5 mph - N/A   Clear
11:53 PM 55.9 °F - 51.1 °F 84% 29.93 in 10.0 mi NW 11.5 mph - N/A   Clear